Regional Weather Roundup
Issued by NWS Little Rock, AR

Home | Current Version | Previous Version | Text Only | Print | Product List | Glossary Off
Versions: 1 2 3 4 5 6 7 8 9 10 11 12 13 14 15 16 17 18 19 20 21 22 23 24 25 26 27 28 29 30 31 32 33 34 35 36 37 38 39 40 41 42 43 44 45 46 47 48 49 50

000
ASUS44 KLZK 252005
RWRLZK

WEATHER ROUNDUP FOR ARKANSAS
NATIONAL WEATHER SERVICE LITTLE ROCK AR
300 PM CDT SAT APR 25 2015

NOTE: "FAIR" INDICATES FEW OR NO CLOUDS BELOW 12,000 FEET WITH NO
SIGNIFICANT WEATHER AND/OR OBSTRUCTIONS TO VISIBILITY.

ARZ001-003-010-029-252100-
NORTHWEST ARKANSAS

CITY           SKY/WX    TMP DP  RH WIND       PRES   REMARKS
FAYETTEVILLE   SUNNY     76  53  44 SW18G26   29.59F
FORT SMITH     SUNNY     81  53  37 W8        29.59F
HARRISON       SUNNY     78  48  34 W17G29    29.56F
BENTONVILLE    SUNNY     77  54  44 W18G24    29.59F
ROGERS         MOSUNNY   76  53  44 W16G28    29.59S
SILOAM SPGS    SUNNY     79  54  41 W17G23    29.61S
HIGHFILL       SUNNY     78  51  38 W18G28    29.58S
SPRINGDALE     SUNNY     77  50  38 W20G31    29.61R
$$

ARZ004-005-016-252100-
NORTH CENTRAL ARKANSAS

CITY           SKY/WX    TMP DP  RH WIND       PRES   REMARKS
BATESVILLE     SUNNY     82  55  39 SW17G23   29.53F
FLIPPIN          N/A     81  48  32 W22G32    29.52S
MTN HOME       SUNNY     80  48  32 W10G20    29.53S
$$

ARZ040-041-252100-
WEST CENTRAL ARKANSAS

CITY           SKY/WX    TMP DP  RH WIND       PRES   REMARKS
MENA           SUNNY     82  52  34 W10G17    29.63F
MOUNT IDA      SUNNY     84  52  33 VRB3      29.59F
$$

ARZ009-017-025-026-028-252100-
NORTHEAST ARKANSAS

CITY           SKY/WX    TMP DP  RH WIND       PRES   REMARKS
CORNING          N/A     81  63  54 SW18G28   29.49F
JONESBORO      SUNNY     76  63  64 SW16G26   29.53F
NEWPORT        SUNNY     82  64  54 SW18G29   29.54F
WALNUT RIDGE   SUNNY     82  57  42 SW21      29.50F
BLYTHEVILLE    MOSUNNY   79  64  60 SW15G26   29.54F
$$

ARZ022-023-033-042-044-252100-
CENTRAL ARKANSAS

CITY           SKY/WX    TMP DP  RH WIND       PRES   REMARKS
LITTLE ROCK    MOSUNNY   83  59  44 SW16G22   29.59F
N LITTLE ROCK  MOSUNNY   81  62  51 SW9G18    29.59F
JACKSONVILLE   SUNNY     83  59  43 SW21      29.57F
SEARCY         SUNNY     82  62  50 SW10      29.58S
HOT SPRINGS    SUNNY     84  56  38 W13G21    29.60F
RUSSELLVILLE   SUNNY     81  55  40 W12G20    29.57F
CLINTON        FAIR      81  57  44 SW14G21   29.57F
$$

ARZ036-252100-
EAST ARKANSAS

CITY           SKY/WX    TMP DP  RH WIND       PRES   REMARKS
WEST MEMPHIS   PTSUNNY   78  65  63 SW9G20    29.56F
$$

ARZ050-053-066-070-073-252100-
SOUTHWEST ARKANSAS

CITY           SKY/WX    TMP DP  RH WIND       PRES   REMARKS
ARKADELPHIA    FAIR      83  63  50 SW14      29.61F
CAMDEN         SUNNY     86  57  37 E10G17    29.62F HX  85
TEXARKANA      SUNNY     86  53  32 W16G24    29.64F
EL DORADO      SUNNY     85  59  41 SW15G23   29.63F
DE QUEEN       SUNNY     83  53  35 W16G22    29.61F
$$

ARZ056-057-069-252100-
SOUTHEAST ARKANSAS

CITY           SKY/WX    TMP DP  RH WIND       PRES   REMARKS
PINE BLUFF     SUNNY     82  63  52 SW13G23   29.60F
STUTTGART      SUNNY     81  64  57 W16       29.60F
MONTICELLO     SUNNY     84  64  50 W14       29.61F HX  85

$$





USA.gov is the U.S. government's official web portal to all federal, state and local government web resources and services.